Location: Gazon
(48.1318°N, 1.2708°W)
Time: 23:06:32
(UTC+00:00)

Lacrosse 4 Rocket - Pass Details

Date: 18 September 2020
Orbit: 543 x 615 km, 68.0° (Epoch: 25 October)

Event Time Altitude Azimuth Distance (km) Brightness Sun altitude
Rises 20:57:41 0° 335° (NNW) 2,716 5.8 -26.8°
Reaches altitude 10° 21:00:17 10° 351° (N) 1,822 4.5 -27.1°
Enters shadow 21:02:06 19° 15° (NNE) 1,362 3.5 -27.4°
